DeKalb Peachtree Airport Atlanta US
ICAO: KPDK
IATA: PDK
Category: Medium
Scheduled Services: No

Elevation: 1003 ft
TransAlt. 18000 ft.

Airport Communications:
ATLANTA APP/DEP:126.975
ATIS:128.4
CLNC DEL:120.9
CTAF:120.9
GND:121.6
MACON RDO:116.6
PEACHTREE TWR:120.9
UNICOM:122.95

KPDK Zoom In..

If you have problems with the map follow the link
https://www.worldairports.se/pages/airport.php?
ICAO=KPDK

Runways:

(A) RW 03L length 3746 ft width 150 ft
---- / hdg 26

(B) RW 03R length 6001 ft width 100 ft
---- / hdg 26

(C) RW 09 length 3383 ft width 150 ft
---- / hdg 91

(D) RW 16 length 3967 ft width 150 ft
---- / hdg 162

(E) RW 21L length 6001 ft width 100 ft
ILS 111.10 / hdg 206

(F) RW 21R length 3746 ft width 150 ft
---- / hdg 206

(G) RW 27 length 3383 ft width 150 ft
---- / hdg 271

(H) RW 34 length 3967 ft width 150 ft
---- / hdg 342

Location; KPDK
Day. 22 / Time. 11.53 Zulu
* Altimeter: 30.30
* Temperature: 03° c. 37.4°f.
* Wind from: 000° Speed 00 kn.
Dewpoint: 02° c.
Visibility: 10 Statute Miles.
Clouds: Clear (automated report).

KPDK 221153Z 00000KT 10SM CLR 03/02 A3030 RMK AO2 SLP268 T00330022 10050 20028 51017


Wind - Calm.

 
 
jpsmedia.com for Web Design worldairports.se 2018   terms of use